Satellite: HUBBLE
Catalog number: 20580
Epoch time:      10034.26164458
Element set:     512
Inclination:      028.4698 deg
RA of node:       034.1064 deg
Eccentricity:    0.0003637
Arg of perigee:   214.2224 deg
Mean anomaly:     145.8149 deg
Mean motion:   15.00886988 rev/day
Decay rate:       3.71e-06 rev/day^2
Epoch rev:           88460
Checksum:              289

Satellite: ISS
Catalog number: 25544
Epoch time:      10036.02140206
Element set:     517
Inclination:      051.6445 deg
RA of node:       189.3027 deg
Eccentricity:    0.0010719
Arg of perigee:   284.4187 deg
Mean anomaly:     177.1299 deg
Mean motion:   15.75678155 rev/day
Decay rate:     1.6750e-04 rev/day^2
Epoch rev:           64265
Checksum:              300

Satellite: CO-58
Catalog number: 28895
Epoch time:      10034.67119931
Element set:    0505
Inclination:      098.0327 deg
RA of node:       283.4278 deg
Eccentricity:    0.0017957
Arg of perigee:   346.9978 deg
Mean anomaly:     013.0763 deg
Mean motion:   14.59840793 rev/day
Decay rate:        3.0e-07 rev/day^2
Epoch rev:           22750
Checksum:              338

Satellite: FALCON
Catalog number: 30776
Epoch time:      10035.67636338
Element set:     758
Inclination:      035.4325 deg
RA of node:       128.6694 deg
Eccentricity:    0.0000255
Arg of perigee:   052.8860 deg
Mean anomaly:     307.1879 deg
Mean motion:   15.03445489 rev/day
Decay rate:       4.76e-06 rev/day^2
Epoch rev:           16010
Checksum:              305

Satellite: MAST
Catalog number: 31126
Epoch time:      10034.81589486
Element set:    0793
Inclination:      097.9589 deg
RA of node:       083.6040 deg
Eccentricity:    0.0093379
Arg of perigee:   280.8106 deg
Mean anomaly:     078.2527 deg
Mean motion:   14.53549527 rev/day
Decay rate:       -8.8e-07 rev/day^2
Epoch rev:           14868
Checksum:              343

Satellite: CAPE1
Catalog number: 31130
Epoch time:      10035.56470186
Element set:     806
Inclination:      097.9548 deg
RA of node:       081.9921 deg
Eccentricity:    0.0101643
Arg of perigee:   285.5880 deg
Mean anomaly:     073.4136 deg
Mean motion:   14.52130500 rev/day
Decay rate:       1.09e-06 rev/day^2
Epoch rev:           14841
Checksum:              274

Satellite: COMPASS
Catalog number: 32787
Epoch time:      10034.19766702
Element set:    0587
Inclination:      097.9109 deg
RA of node:       100.7052 deg
Eccentricity:    0.0015879
Arg of perigee:   005.5705 deg
Mean anomaly:     354.5727 deg
Mean motion:   14.81746885 rev/day
Decay rate:       1.37e-06 rev/day^2
Epoch rev:           09565
Checksum:              325

Satellite: AAUSAT2
Catalog number: 32788
Epoch time:      10034.68594279
Element set:     580
Inclination:      097.9116 deg
RA of node:       101.2882 deg
Eccentricity:    0.0015807
Arg of perigee:   005.1360 deg
Mean anomaly:     354.9984 deg
Mean motion:   14.81883217 rev/day
Decay rate:       6.67e-06 rev/day^2
Epoch rev:            9573
Checksum:              329

Satellite: DO-64
Catalog number: 32789
Epoch time:      10034.70427279
Element set:    0598
Inclination:      097.9166 deg
RA of node:       101.6425 deg
Eccentricity:    0.0015549
Arg of perigee:   002.9906 deg
Mean anomaly:     357.1365 deg
Mean motion:   14.81945053 rev/day
Decay rate:       5.80e-06 rev/day^2
Epoch rev:           09573
Checksum:              331

Satellite: CO-66
Catalog number: 32791
Epoch time:      10034.20107846
Element set:    0578
Inclination:      097.9120 deg
RA of node:       100.7359 deg
Eccentricity:    0.0016319
Arg of perigee:   003.8058 deg
Mean anomaly:     356.3313 deg
Mean motion:   14.81554326 rev/day
Decay rate:        5.6e-07 rev/day^2
Epoch rev:           09561
Checksum:              293

Satellite: RS-30
Catalog number: 32953
Epoch time:      10034.75829675
Element set:    0518
Inclination:      082.5027 deg
RA of node:       112.6590 deg
Eccentricity:    0.0019440
Arg of perigee:   037.1644 deg
Mean anomaly:     323.0779 deg
Mean motion:   12.43003120 rev/day
Decay rate:        1.0e-07 rev/day^2
Epoch rev:           07716
Checksum:              267

Satellite: TACSAT-3
Catalog number: 35001
Epoch time:      10034.87632398
Element set:    0222
Inclination:      040.4568 deg
RA of node:       294.0130 deg
Eccentricity:    0.0021243
Arg of perigee:   084.8456 deg
Mean anomaly:     275.4800 deg
Mean motion:   15.40164879 rev/day
Decay rate:      3.320e-05 rev/day^2
Epoch rev:           04006
Checksum:              263

Satellite: PHARMSAT
Catalog number: 35002
Epoch time:      10034.88136422
Element set:     197
Inclination:      040.4703 deg
RA of node:       292.5339 deg
Eccentricity:    0.0024323
Arg of perigee:   088.6161 deg
Mean anomaly:     271.7455 deg
Mean motion:   15.40835761 rev/day
Decay rate:      3.501e-05 rev/day^2
Epoch rev:            4007
Checksum:              263

Satellite: HAWKSAT1
Catalog number: 35003
Epoch time:      10035.83876878
Element set:     206
Inclination:      040.4620 deg
RA of node:       284.5917 deg
Eccentricity:    0.0022981
Arg of perigee:   103.4261 deg
Mean anomaly:     256.9116 deg
Mean motion:   15.42415581 rev/day
Decay rate:      7.364e-05 rev/day^2
Epoch rev:            4025
Checksum:              280

